Regional Weather Roundup
Issued by NWS Burlington, VT

Home | Current Version | Previous Version | Text Only | Print | Product List | Glossary On
Versions: 1 2 3 4 5 6 7 8 9 10 11 12 13 14 15 16 17 18 19 20 21 22 23 24 25 26 27 28 29 30 31 32 33 34 35 36 37 38 39 40 41 42 43 44 45 46 47 48 49 50
796
ASUS41 KBTV 101810
RWRBTV
VERMONT REGIONAL WEATHER ROUNDUP
NATIONAL WEATHER SERVICE BURLINGTON VT
100 PM EST WED FEB 10 2016

NOTE: "FAIR" INDICATES FEW OR NO CLOUDS BELOW 12,000 FEET WITH NO
SIGNIFICANT WEATHER AND/OR OBSTRUCTIONS TO VISIBILITY.

* THESE REPORTS ARE NOT UNDER NWS QUALITY CONTROL AND/OR DO NOT
  REPORT WEATHER SUCH AS PRECIPITATION AND FOG.

VTZ001>019-101900-
_____VERMONT_____


CITY           SKY/WX    TMP DP  RH WIND       PRES   REMARKS
BURLINGTON     PTSUNNY   37  26  64 VRB5      29.47F
6HR MIN TEMP:  28; 6HR MAX TEMP:  37; 6HR PCP: TRACE;

MONTPELIER     CLOUDY    32  22  66 S8        29.48F WCI  25
6HR MIN TEMP:  19; 6HR MAX TEMP:  32; 6HR PCP: TRACE;

MORRISVILLE    CLOUDY    38  23  55 SW10      29.46F WCI  31
6HR MIN TEMP:  24; 6HR MAX TEMP:  38; 6HR PCP: TRACE;

ST. JOHNSBURY*   N/A     32  23  69 MISG      29.46F
6HR MIN TEMP:  22; 6HR MAX TEMP:  32;

LYNDONVILLE*   CLOUDY    31  24  75 E5        29.46F WCI  26
6HR MIN TEMP:  20; 6HR MAX TEMP:  31;

RUTLAND*       CLOUDY    32  21  64 SW6       29.50S WCI  26
6HR MIN TEMP:  25; 6HR MAX TEMP:  34;

SPRINGFIELD    CLOUDY    31  26  82 CALM      29.51F
6HR MIN TEMP:  21; 6HR MAX TEMP:  31; 6HR PCP: TRACE;

HIGHGATE*      FLURRIES  24  19  82 N3        29.51F
6HR MIN TEMP:  19; 6HR MAX TEMP:  25;

NEWPORT*       CLOUDY    32  24  72 S6        29.45S WCI  26
6HR MIN TEMP:  21; 6HR MAX TEMP:  32;

BENNINGTON     CLOUDY    33  25  72 CALM      29.51F
6HR MIN TEMP:  27; 6HR MAX TEMP:  34; 6HR PCP:  0.01;


_____LAKE CHAMPLAIN_____


CITY           SKY/WX    TMP DP  RH WIND       PRES   REMARKS

$$

NYZ007-026>031-035-052-083-101900-
_____NORTHERN NEW YORK_____


CITY           SKY/WX    TMP DP  RH WIND       PRES   REMARKS
PLATTSBURGH    CLOUDY    26  21  81 N9        29.49F WCI  17
6HR MIN TEMP:  22; 6HR MAX TEMP:  27; 6HR PCP: TRACE;

SARANAC LAKE   LGT SNOW  30  24  78 SW14      29.38F WCI  19
6HR MIN TEMP:  25; 6HR MAX TEMP:  30; 6HR PCP: TRACE;

MASSENA        LGT SNOW  24  17  74 N6        29.54S WCI  17
6HR MIN TEMP:  20; 6HR MAX TEMP:  24; 6HR PCP:  0.01;

OGDENSBURG*    PTSUNNY   27  19  74 N3        29.54S
WATERTOWN      LGT SNOW  25  21  85 W8        29.57R VSB 3/4 WCI  16
6HR MIN TEMP:  24; 6HR MAX TEMP:  30; 6HR PCP:  0.05;

ALBANY         PTSUNNY   37  21  52 W13       29.54F WCI  29
6HR MIN TEMP:  29; 6HR MAX TEMP:  37; 6HR PCP: TRACE;

GLENS FALLS    PTSUNNY   36  22  56 SW10      29.51F WCI  28
6HR MIN TEMP:  26; 6HR MAX TEMP:  37; 6HR PCP: TRACE;


$$
NHZ002-005-011-101900-
_____NEW HAMPSHIRE_____


CITY           SKY/WX    TMP DP  RH WIND       PRES   REMARKS
LEBANON        CLOUDY    33  27  78 S8        29.49F WCI  26
6HR MIN TEMP:  23; 6HR MAX TEMP:  33; 6HR PCP:  0.03;

MT WASHINGTON  SNOW      12  12 100 SW26        N/A  VSB 0   WCI  -8
6HR MIN TEMP:   8; 6HR MAX TEMP:  12; 6HR PCP:  0.03;

PLYMOUTH       CLOUDY    32  24  74 CALM      29.51F
6HR MIN TEMP:  20; 6HR MAX TEMP:  32;

WHITEFIELD     CLOUDY    35  24  64 VRB5      29.45F WCI  31
6HR MIN TEMP:  20; 6HR MAX TEMP:  35; 6HR PCP:  0.01;


$$

_____REGIONAL QUEBEC LOCATIONS_____


CITY           SKY/WX    TMP DP  RH WIND       PRES   REMARKS
MONTREAL       FLURRIES  21  14  73 N7        29.53F WCI  13
QUEBEC CITY      N/A     21  12  68 W5        29.51F WCI  15
SHERBROOKE     CLOUDY    25  21  86 VRB2      29.45F

_____REGIONAL ONTARIO LOCATIONS_____


CITY           SKY/WX    TMP DP  RH WIND       PRES   REMARKS
OTTAWA         CLOUDY    23  18  80 W6        29.54S WCI  16

______KEY______
VSB  - VISIBILITY IN MILES
WCI  - WIND CHILL INDEX
HX   - HEAT INDEX
$$
NNNN




USA.gov is the U.S. government's official web portal to all federal, state and local government web resources and services.